Wind_Speed
22 22 23 23 24 24 24 25 25 25 25 26 25 25 24 25 25 25 24 25 26 26 26 27 28 28 28 28 28 29 30 31 31 30 29 29 29 29 29 28 26 27 26
23 23 24 25 25 25 25 25 25 25 25 25 25 25 25 25 25 26 26 26 26 26 27 28 28 29 30 29 29 29 30 30 32 31 31 31 31 31 31 30 30 28 28
23 24 25 26 26 25 25 25 26 26 25 25 25 25 25 25 26 26 26 26 26 27 27 27 28 28 29 30 30 30 30 31 31 32 32 32 32 32 32 32 31 30 29
24 25 25 26 26 26 25 25 25 26 26 26 25 25 26 26 26 26 27 27 27 27 28 28 28 29 30 30 30 31 31 31 31 32 33 33 33 33 32 33 33 33 32
25 25 25 25 25 25 25 25 25 26 25 26 26 26 26 26 26 27 27 27 28 28 28 28 29 30 30 31 30 31 32 32 32 33 34 34 34 34 33 33 34 34 34
26 26 26 26 25 25 25 25 25 25 25 26 25 26 26 26 26 26 27 27 28 28 28 29 29 30 30 31 31 32 32 32 32 34 34 35 36 35 35 34 34 35 35
26 27 27 27 27 26 25 25 26 26 26 26 26 26 26 26 27 27 27 28 28 29 30 30 30 31 31 32 33 33 33 32 32 33 34 35 36 36 36 36 35 35 36
26 26 26 27 27 27 26 26 26 26 26 27 26 26 25 26 27 27 27 28 29 30 31 31 30 31 31 33 33 34 35 33 32 32 33 35 36 36 36 37 37 37 37
25 25 26 26 26 26 26 26 25 25 26 27 26 26 25 26 27 27 28 28 29 29 30 30 30 30 31 32 33 33 34 34 34 34 33 35 36 37 37 37 38 38 38
26 26 26 25 25 25 25 24 24 25 25 25 25 25 26 26 26 26 27 28 28 28 28 29 29 30 31 31 31 32 33 34 35 34 34 33 34 36 37 38 38 39 39
26 25 24 23 23 24 24 24 23 23 23 24 24 25 26 26 27 27 27 27 27 27 27 27 28 29 30 30 30 31 32 33 33 33 34 34 34 34 36 37 39 39 39
25 23 23 23 22 22 23 22 22 22 22 22 23 23 24 25 27 27 26 26 26 26 26 26 26 26 28 29 29 30 31 32 33 33 33 33 34 34 34 36 38 39 39
22 22 22 22 22 22 22 22 21 21 21 22 22 23 23 24 25 25 25 25 25 26 26 26 26 25 25 26 28 28 29 31 32 33 32 32 33 33 34 36 36 38 39
22 22 21 21 22 22 22 21 21 21 21 21 22 22 23 24 24 24 24 24 24 24 24 24 24 24 25 25 26 26 27 29 30 29 30 30 31 32 33 36 37 37 39
21 21 21 21 21 21 21 20 20 21 21 22 22 22 22 23 23 23 23 23 22 22 22 23 22 23 23 24 25 26 27 27 28 28 28 28 29 31 32 34 36 37 38
21 20 20 20 21 21 20 20 20 21 21 22 22 22 22 22 22 22 21 21 21 21 20 21 22 22 23 23 23 25 26 26 26 27 28 29 30 30 31 32 34 36 38
20 20 20 20 20 20 21 20 19 19 20 20 21 21 21 21 20 20 19 20 21 21 20 20 21 22 22 22 23 23 24 25 25 25 26 28 29 30 31 32 33 34 36
20 20 20 20 20 21 20 20 18 17 18 18 19 20 20 20 19 19 19 19 20 20 21 20 20 21 22 22 23 23 23 24 24 25 26 26 27 28 29 29 31 33 35
20 20 19 19 20 20 19 18 18 18 18 18 19 19 19 19 18 18 19 19 19 20 20 20 20 20 21 22 22 23 23 23 24 25 26 26 26 27 28 29 30 31 33
19 19 19 19 19 18 18 17 18 18 18 18 19 18 18 18 18 18 18 18 19 19 20 19 19 19 20 21 20 21 21 21 22 24 24 24 25 25 26 28 29 30 31
18 18 19 19 18 18 17 17 17 18 18 18 18 18 18 18 18 19 19 18 18 18 18 18 18 19 20 20 20 21 21 21 21 23 23 23 23 23 25 26 27 29 30
17 17 18 17 16 17 16 16 16 17 17 17 18 18 18 18 18 18 18 17 17 17 18 18 19 19 19 20 20 21 21 21 21 21 22 22 23 23 23 24 25 26 27
16 16 16 15 15 15 15 16 16 16 16 16 16 16 17 17 17 16 16 16 17 18 18 18 19 19 19 20 20 19 19 20 20 21 21 21 23 22 23 24 25 25 26
16 16 15 15 15 16 16 16 16 16 15 15 15 15 16 16 16 16 16 17 18 18 18 18 19 19 19 19 19 18 18 18 19 20 20 20 22 22 24 25 25 25 25
15 15 16 15 15 15 15 16 16 15 15 15 15 15 16 16 17 17 17 17 17 17 17 17 17 17 18 18 18 18 18 18 19 20 20 20 20 21 23 23 24 25 26
14 14 14 14 14 14 14 14 14 14 14 14 15 15 16 16 17 17 17 17 17 17 17 17 17 17 16 17 17 17 17 18 18 18 19 20 21 22 22 23 23 24 25
Wind_Direction
295 293 293 292 290 291 291 291 289 288 285 281 279 279 279 279 277 272 269 268 266 266 265 263 261 260 258 257 258 257 256 254 251 250 249 248 247 247 247 246 245 243 242
294 292 293 292 291 290 289 289 288 287 285 281 279 277 278 277 277 274 271 270 268 267 267 265 263 261 259 258 258 257 255 255 252 250 249 248 247 248 248 246 245 244 242
295 292 291 291 290 289 290 290 289 286 283 281 277 275 276 276 275 273 271 271 271 269 267 266 264 262 261 259 257 258 255 254 253 251 249 248 248 248 248 246 245 244 243
296 295 293 291 289 288 288 290 290 288 285 282 278 277 276 275 273 272 271 271 270 269 269 268 265 262 261 261 259 258 257 254 254 252 252 250 248 248 248 247 246 245 243
297 295 294 291 289 289 288 288 288 289 287 284 280 278 277 275 273 272 271 271 270 269 268 268 266 263 262 261 260 259 258 257 255 254 253 252 250 247 247 248 246 245 244
297 296 295 292 290 289 287 286 288 288 286 284 282 281 279 277 276 274 271 271 271 270 269 268 267 264 262 260 259 258 258 258 257 255 254 252 249 248 246 247 247 245 244
299 298 297 292 292 289 288 287 286 286 286 284 282 280 277 277 277 276 275 273 272 270 269 267 267 265 263 261 260 259 257 258 257 255 254 252 250 248 247 246 246 245 243
300 300 299 296 296 295 293 290 286 285 285 285 283 280 278 279 280 279 277 275 273 271 269 267 267 265 263 262 262 261 258 256 256 255 254 252 250 248 247 246 245 244 243
302 301 299 299 298 299 296 291 288 286 286 286 286 284 281 280 280 280 278 277 276 273 271 268 267 265 264 263 262 261 258 256 255 255 256 253 251 248 247 246 244 242 241
300 300 300 299 299 300 298 295 292 289 289 289 289 286 284 282 282 281 281 279 278 275 272 271 269 267 263 262 260 259 259 256 255 254 254 253 251 249 248 246 243 241 240
303 301 301 300 300 300 299 297 294 291 292 292 292 289 287 285 284 282 281 281 279 277 275 272 270 268 264 261 259 258 258 257 255 253 253 251 251 250 249 247 244 241 240
306 306 303 302 302 301 300 297 295 295 296 297 296 293 290 289 287 286 284 281 280 279 277 275 274 270 266 263 260 259 258 258 256 253 254 251 250 249 248 246 244 241 240
308 307 305 305 303 302 301 299 298 298 298 298 297 295 294 292 290 287 286 283 281 279 278 277 275 272 270 265 260 260 259 259 257 255 253 252 250 249 248 244 243 241 239
309 307 307 307 305 305 303 301 300 300 300 299 298 297 295 294 292 290 289 286 283 281 278 277 277 274 272 268 264 262 260 259 256 255 252 251 250 250 248 244 243 242 240
310 309 309 309 308 307 305 303 302 303 303 301 300 301 300 298 296 294 291 288 285 283 281 279 278 276 274 272 269 265 262 261 256 253 253 251 250 250 249 246 243 243 242
310 308 309 310 310 308 305 304 304 304 304 302 301 302 302 300 298 297 292 289 286 283 281 280 280 280 277 274 271 267 266 264 261 258 256 254 252 252 251 248 245 243 242
309 309 308 308 309 308 306 305 305 307 306 304 304 305 305 303 301 298 294 292 289 286 285 284 283 282 280 276 274 271 268 265 263 261 257 255 253 251 251 249 246 243 242
305 309 309 307 306 308 308 308 308 309 308 308 308 308 308 307 304 300 297 294 292 290 288 286 285 284 281 279 275 273 270 265 261 258 257 256 253 251 250 249 246 244 242
304 306 308 310 308 306 306 306 308 309 310 311 311 311 311 309 306 303 299 296 294 292 290 288 287 287 286 284 279 276 273 267 262 258 258 258 256 253 251 249 248 246 244
306 307 306 308 309 306 306 306 308 309 311 313 314 314 313 311 309 306 302 298 296 295 293 290 289 288 286 285 282 279 275 272 265 260 260 259 257 256 253 252 251 249 245
308 307 308 308 308 307 306 307 309 311 313 314 316 317 316 314 313 309 304 301 300 299 297 293 292 292 288 284 282 280 276 273 268 263 261 260 259 258 256 251 251 249 247
310 310 310 309 310 309 307 310 314 316 316 316 317 317 315 315 315 312 310 308 306 303 299 296 296 295 293 288 285 281 275 272 270 265 263 261 260 258 257 252 251 250 247
308 311 313 312 314 317 317 318 320 318 317 318 319 320 321 320 321 319 318 314 311 307 302 300 298 297 294 290 287 284 280 275 271 267 265 264 261 258 256 255 253 251 249
307 309 311 314 316 318 320 322 322 318 317 318 320 321 323 324 324 322 321 320 317 314 311 307 304 300 298 294 291 286 281 276 274 271 268 264 262 260 256 255 254 250 249
307 307 311 314 317 319 321 322 321 318 317 318 318 320 322 323 323 321 319 320 320 320 318 314 310 305 299 296 292 286 281 278 275 273 270 266 263 261 257 255 253 251 250
312 311 312 314 315 317 321 323 320 321 321 322 322 322 324 324 325 324 323 323 321 320 320 320 317 313 307 303 298 291 286 283 280 276 270 267 265 261 258 257 255 252 250
Height
5841 5839 5837 5835 5833 5831 5829 5827 5825 5823 5821 5819 5817 5816 5815 5814 5813 5812 5812 5811 5811 5810 5810 5810 5810 5810 5811 5811 5812 5812 5813 5814 5815 5816 5818 5819 5821 5822 5824 5826 5827 5829 5831
5836 5833 5831 5829 5827 5825 5823 5821 5819 5817 5815 5813 5811 5810 5808 5807 5806 5805 5805 5804 5804 5803 5803 5803 5803 5803 5803 5804 5804 5805 5806 5807 5808 5809 5811 5812 5814 5816 5817 5819 5821 5823 5825
5830 5827 5825 5823 5820 5818 5816 5814 5812 5810 5808 5806 5805 5803 5802 5801 5799 5798 5798 5797 5796 5796 5796 5795 5795 5795 5795 5796 5796 5796 5797 5799 5800 5802 5803 5805 5807 5808 5810 5812 5814 5816 5819
5823 5821 5818 5816 5813 5811 5809 5808 5806 5803 5801 5799 5798 5796 5795 5794 5792 5791 5790 5789 5789 5788 5788 5787 5787 5787 5788 5788 5788 5789 5789 5790 5792 5794 5795 5797 5799 5800 5802 5805 5807 5809 5811
5817 5814 5812 5809 5806 5804 5802 5801 5799 5796 5794 5792 5791 5789 5788 5786 5785 5784 5783 5782 5781 5780 5780 5779 5779 5779 5779 5780 5780 5780 5781 5782 5784 5785 5787 5788 5790 5792 5794 5797 5799 5802 5804
5811 5808 5806 5803 5800 5797 5795 5793 5791 5789 5787 5785 5783 5782 5780 5779 5777 5776 5775 5774 5773 5772 5772 5771 5771 5771 5771 5771 5771 5772 5772 5773 5775 5777 5778 5780 5782 5784 5786 5789 5791 5794 5796
5805 5802 5799 5796 5793 5790 5788 5786 5784 5782 5780 5778 5776 5775 5773 5771 5770 5769 5767 5766 5765 5764 5764 5763 5763 5762 5762 5762 5762 5763 5764 5765 5766 5767 5769 5771 5773 5775 5778 5780 5783 5785 5788
5799 5795 5792 5789 5787 5784 5781 5779 5777 5774 5772 5770 5769 5767 5766 5765 5763 5761 5759 5758 5757 5756 5755 5755 5754 5753 5753 5753 5753 5753 5754 5756 5757 5758 5759 5762 5763 5766 5769 5771 5774 5777 5779
5792 5789 5786 5783 5780 5777 5775 5772 5769 5767 5765 5763 5761 5759 5758 5757 5755 5754 5752 5751 5749 5747 5746 5746 5745 5745 5744 5744 5744 5745 5745 5747 5748 5749 5750 5752 5754 5756 5759 5762 5765 5768 5771
5787 5783 5780 5776 5773 5771 5768 5765 5763 5761 5758 5756 5754 5752 5751 5749 5748 5747 5745 5743 5741 5739 5738 5737 5736 5736 5735 5735 5735 5735 5736 5737 5739 5740 5741 5743 5744 5747 5749 5752 5755 5758 5761
5780 5777 5773 5770 5767 5765 5762 5759 5757 5755 5752 5750 5748 5745 5743 5742 5740 5739 5737 5735 5733 5731 5729 5728 5728 5727 5726 5726 5726 5726 5727 5728 5729 5731 5732 5733 5735 5737 5739 5742 5745 5748 5751
5774 5771 5768 5765 5762 5759 5756 5753 5751 5749 5746 5744 5741 5739 5737 5735 5733 5731 5729 5727 5725 5724 5722 5721 5719 5718 5717 5717 5717 5718 5718 5719 5720 5721 5722 5723 5725 5727 5730 5732 5735 5738 5742
5768 5765 5762 5759 5756 5753 5750 5748 5746 5743 5740 5738 5735 5733 5730 5728 5726 5723 5721 5720 5718 5717 5715 5713 5712 5711 5710 5709 5709 5709 5710 5710 5710 5711 5712 5714 5716 5718 5720 5722 5725 5728 5731
5763 5760 5757 5754 5751 5748 5745 5743 5740 5738 5735 5732 5729 5727 5724 5721 5719 5716 5714 5713 5711 5710 5708 5707 5705 5703 5702 5701 5701 5701 5702 5702 5702 5703 5704 5705 5707 5709 5710 5713 5716 5718 5721
5758 5755 5752 5749 5746 5743 5740 5738 5735 5732 5729 5726 5723 5721 5718 5715 5712 5710 5707 5705 5705 5703 5702 5700 5699 5697 5695 5694 5693 5693 5694 5694 5694 5695 5695 5697 5698 5700 5701 5704 5706 5709 5712
5753 5750 5748 5745 5742 5739 5736 5733 5730 5726 5724 5721 5718 5715 5712 5708 5706 5703 5701 5699 5697 5697 5696 5694 5692 5691 5689 5687 5686 5686 5686 5686 5686 5687 5688 5689 5690 5691 5693 5695 5697 5699 5702
5748 5746 5743 5740 5737 5734 5731 5727 5724 5721 5719 5716 5713 5710 5706 5703 5700 5697 5695 5693 5691 5690 5689 5688 5686 5684 5682 5681 5680 5679 5679 5679 5679 5679 5680 5680 5681 5683 5684 5686 5688 5691 5693
5744 5741 5738 5735 5732 5729 5726 5723 5720 5717 5714 5711 5708 5705 5701 5698 5695 5692 5690 5688 5686 5684 5683 5681 5680 5678 5676 5675 5673 5672 5672 5672 5672 5672 5672 5673 5674 5675 5676 5678 5679 5682 5684
5738 5736 5733 5730 5727 5724 5722 5719 5715 5712 5709 5706 5703 5700 5697 5694 5690 5688 5685 5683 5680 5679 5677 5675 5674 5672 5670 5669 5667 5666 5665 5664 5664 5665 5665 5666 5666 5667 5668 5670 5671 5673 5675
5733 5731 5728 5726 5723 5720 5717 5714 5711 5708 5705 5702 5699 5696 5693 5689 5686 5683 5680 5678 5675 5673 5671 5669 5668 5666 5664 5662 5661 5660 5659 5658 5658 5658 5658 5658 5659 5659 5660 5661 5663 5664 5666
5728 5726 5723 5721 5718 5715 5712 5710 5707 5704 5701 5698 5695 5692 5688 5685 5681 5678 5675 5673 5670 5668 5666 5664 5662 5660 5658 5657 5655 5654 5652 5651 5651 5651 5651 5651 5651 5652 5652 5653 5654 5656 5657
5724 5721 5719 5716 5713 5710 5708 5705 5703 5700 5697 5694 5691 5687 5684 5680 5677 5674 5671 5668 5666 5663 5661 5659 5657 5655 5653 5651 5649 5647 5646 5645 5645 5645 5644 5644 5644 5645 5645 5646 5647 5648 5649
5719 5717 5714 5712 5709 5706 5704 5702 5699 5696 5693 5690 5687 5683 5680 5677 5673 5669 5667 5664 5661 5659 5656 5654 5652 5649 5647 5645 5643 5642 5640 5639 5638 5638 5638 5638 5638 5638 5638 5639 5639 5640 5641
5715 5713 5711 5709 5706 5703 5701 5698 5695 5692 5689 5686 5683 5679 5676 5673 5670 5666 5663 5660 5657 5654 5651 5649 5646 5644 5641 5639 5637 5635 5634 5633 5632 5631 5630 5631 5631 5630 5631 5631 5631 5632 5634
5710 5709 5707 5705 5702 5700 5698 5695 5691 5688 5685 5682 5679 5676 5673 5670 5666 5663 5660 5657 5654 5650 5647 5644 5641 5638 5636 5633 5631 5629 5628 5627 5626 5625 5624 5624 5623 5623 5623 5623 5624 5625 5626
5706 5705 5703 5701 5699 5696 5694 5691 5688 5685 5682 5679 5676 5673 5670 5666 5663 5659 5656 5653 5650 5647 5643 5640 5637 5634 5631 5628 5626 5624 5622 5620 5619 5619 5618 5617 5617 5616 5617 5617 5617 5617 5618